Wind_Speed
18 18 19 20 22 24 27 30 32 33 32 31 29 27 26 25 24 24 23 24 23 23 23 23 22 20 19 20 21 21 22 22 23 24 24 24 24 24 24 25 25 25 25 25 25 25 25 25 24 24 24 25 27 30 32 33 36 37 37 38 36 35 35 35 38 41 39 35 34 35 34 35 37 37 37 36 34 34 35 33 32 33 37 40 39
19 19 20 21 22 25 28 30 33 33 32 31 29 27 25 25 25 25 25 24 24 23 23 23 22 21 20 20 21 21 21 21 22 23 24 24 24 25 25 26 27 27 26 26 26 26 26 26 26 26 26 26 28 31 34 37 40 40 38 37 37 36 35 36 36 39 41 38 35 36 37 38 39 38 38 38 36 35 36 35 33 32 34 37 37
20 19 21 22 24 26 28 31 33 33 32 31 29 27 25 25 26 27 27 26 25 25 24 22 21 21 20 20 21 21 21 21 22 23 24 25 25 26 26 26 27 28 28 28 27 26 26 27 27 27 27 27 29 31 35 39 42 43 40 37 36 36 35 36 37 37 38 38 37 37 38 39 40 40 39 38 38 38 37 36 34 33 34 36 35
26 23 22 23 24 26 29 32 33 32 31 30 28 26 25 25 26 27 27 26 25 24 25 24 23 22 21 20 21 22 21 22 24 24 25 25 26 26 27 27 27 27 28 29 27 26 26 26 27 28 28 29 30 32 36 42 44 44 42 37 34 35 34 35 39 39 36 37 39 39 39 40 40 40 40 39 39 40 40 38 37 36 35 36 36
29 26 23 22 24 26 29 32 32 31 29 28 27 25 25 25 24 25 25 25 24 24 25 25 25 25 23 21 21 22 22 23 25 26 25 25 26 27 27 28 26 25 26 28 27 27 27 27 28 28 29 30 31 33 38 44 46 45 43 38 33 33 34 34 37 42 40 37 38 39 39 39 41 40 39 40 40 41 42 41 41 40 39 39 39
27 26 25 25 26 27 29 31 30 29 28 27 25 24 23 24 23 24 25 25 25 24 24 25 24 24 24 22 21 21 23 24 25 25 25 25 26 26 25 26 25 24 25 27 28 29 28 28 28 28 29 30 32 34 38 43 45 45 44 39 33 32 33 34 35 40 44 41 38 38 38 38 41 41 39 38 39 40 43 44 43 42 41 41 40
27 26 25 26 29 29 30 30 28 28 28 26 25 24 23 23 23 23 24 23 24 24 24 24 23 23 23 22 22 22 23 24 24 24 25 26 27 26 24 25 25 24 25 27 28 28 27 27 27 28 30 31 32 34 37 41 42 44 45 41 34 30 31 31 32 36 42 43 39 38 38 38 40 41 39 38 39 41 44 45 44 42 41 41 39
25 24 24 25 28 29 30 29 28 28 27 25 25 24 24 23 23 22 22 22 23 23 23 24 23 22 22 22 22 22 23 24 23 23 25 26 28 28 27 26 26 26 26 27 27 26 25 26 27 28 30 31 32 33 36 40 41 42 43 42 35 30 28 29 29 31 36 41 41 39 39 40 41 40 40 40 41 42 44 45 44 42 40 40 38
26 23 22 24 27 28 28 28 28 27 26 25 25 24 23 22 22 22 22 22 22 23 24 24 23 22 22 22 22 22 23 23 22 23 25 26 27 28 28 28 27 27 26 26 25 24 24 24 26 27 28 30 31 32 35 38 40 41 41 41 38 32 29 28 28 28 32 36 39 40 39 39 40 40 40 40 41 41 41 43 44 43 41 40 38
25 22 22 24 26 27 27 27 27 27 26 26 25 23 22 21 22 22 22 22 22 23 24 24 23 23 23 22 22 22 23 22 22 23 25 26 27 28 27 27 27 27 27 26 25 24 23 24 26 27 28 29 30 32 34 36 39 41 41 40 38 34 31 29 26 25 29 33 36 38 38 38 36 37 38 39 39 40 41 43 45 43 41 41 40
22 21 24 25 26 27 27 27 27 26 26 26 25 23 22 22 22 23 23 22 22 23 23 24 24 24 24 23 23 22 22 22 23 24 24 25 27 27 27 26 27 27 27 27 27 26 25 25 27 28 28 28 30 32 33 34 37 40 41 40 38 34 31 31 26 22 24 29 34 36 38 39 35 33 35 37 37 38 40 43 44 43 42 42 39
18 20 24 24 26 26 26 26 26 26 27 26 25 23 23 23 23 24 24 23 22 22 23 24 24 25 24 24 23 22 22 22 24 24 24 25 26 27 27 26 27 27 27 28 28 27 27 27 28 29 29 29 30 32 33 33 35 39 40 39 37 32 28 29 27 24 21 24 31 35 37 40 38 34 34 34 35 37 39 41 43 43 42 40 38
17 21 23 24 25 26 26 27 26 26 27 26 26 25 25 25 25 25 25 24 23 23 24 25 25 25 24 24 23 22 22 23 24 25 25 25 25 26 27 26 27 27 27 27 27 27 27 27 27 28 28 29 30 32 33 33 33 38 40 38 36 31 26 25 27 26 23 21 28 35 38 39 40 37 34 33 34 36 39 41 42 42 42 40 38
18 21 23 24 24 25 26 26 26 27 27 27 27 27 27 27 27 26 25 25 24 25 26 27 26 24 24 23 23 23 22 23 24 25 26 26 26 27 26 26 27 27 26 26 26 26 26 26 27 27 27 28 29 31 33 32 32 37 40 38 36 33 27 23 24 26 25 22 25 33 38 39 41 39 36 35 36 36 38 40 42 42 41 40 37
20 22 23 24 24 24 26 26 27 28 28 28 28 29 30 30 29 27 25 25 26 26 28 28 26 25 24 23 23 23 23 23 23 24 25 26 26 27 27 26 26 26 25 25 26 26 26 26 27 27 27 27 29 31 33 32 31 35 40 39 36 35 31 24 22 24 25 25 27 33 37 39 40 40 37 38 40 39 37 40 42 41 40 40 38
23 24 24 24 24 25 26 27 27 28 29 30 30 31 32 33 32 29 27 27 27 28 28 28 26 24 24 24 23 23 22 22 23 25 26 26 26 27 27 26 26 26 26 25 26 26 26 26 26 26 26 27 28 30 32 31 30 34 39 40 37 36 33 26 22 21 24 26 29 34 38 39 40 40 38 39 42 41 40 40 40 38 38 39 39
25 25 25 25 25 26 26 27 29 30 31 31 32 33 34 35 34 33 30 29 28 28 29 28 26 24 23 23 23 23 23 24 23 24 26 26 26 27 28 27 26 26 26 26 25 26 27 28 27 27 27 26 28 29 30 30 30 32 37 40 37 36 36 28 21 20 22 25 28 33 38 38 39 40 40 39 40 41 42 43 41 38 38 39 39
23 24 24 25 27 27 28 29 30 31 32 32 33 34 34 35 35 34 32 30 29 29 29 28 27 26 25 24 24 24 24 25 24 25 26 26 26 27 28 28 26 26 26 25 25 25 26 27 27 27 27 26 27 29 29 29 29 30 36 39 37 37 39 35 25 20 21 23 26 31 35 36 36 39 41 39 38 41 45 44 41 39 38 39 39
20 22 24 27 29 30 30 31 31 32 33 34 34 34 33 34 34 33 32 31 30 30 29 29 29 28 26 26 26 25 24 24 24 25 25 25 25 27 28 27 25 25 25 25 24 24 25 26 26 26 25 25 26 27 27 28 28 30 35 38 36 37 42 42 33 24 22 23 24 27 31 33 33 34 39 40 39 42 46 45 42 40 39 38 39
22 24 27 29 31 31 32 34 34 34 34 35 35 34 33 32 32 32 32 32 32 31 30 29 29 28 27 27 26 26 25 23 23 23 23 23 23 24 25 25 24 24 25 25 24 24 24 25 25 24 24 25 25 26 26 27 27 30 34 36 34 36 41 44 37 27 23 24 24 22 24 27 28 30 35 39 40 42 45 45 43 42 42 41 40
26 29 31 32 34 34 35 36 37 36 36 35 35 35 33 33 33 33 32 32 32 32 31 30 30 29 28 27 27 26 24 23 22 22 21 20 21 22 22 23 23 24 24 24 24 24 24 25 24 23 23 23 24 24 24 25 27 30 31 31 31 33 39 44 40 28 22 24 23 20 19 22 24 26 31 36 38 40 42 43 42 42 44 44 41
27 30 33 35 37 37 37 39 40 39 37 36 36 36 34 34 34 34 32 31 32 32 31 30 30 31 30 28 26 24 23 23 23 22 20 19 19 20 21 21 23 24 24 23 23 24 24 24 24 23 22 23 24 24 24 25 27 28 27 26 27 29 35 42 43 35 26 22 21 19 16 17 20 22 28 34 37 38 39 41 42 42 43 43 41
27 30 34 37 39 39 39 40 41 41 41 40 39 37 35 35 35 33 32 33 33 33 31 29 29 31 30 27 24 23 23 23 22 20 18 18 20 20 20 21 22 23 23 23 23 23 23 23 23 22 22 23 24 23 23 24 24 24 25 25 25 28 34 40 43 41 34 26 22 22 18 14 18 21 25 31 36 38 38 40 41 41 41 41 42
28 31 34 37 40 41 40 39 41 42 42 41 39 36 35 35 34 34 34 34 33 31 28 26 26 26 24 23 22 22 22 22 20 19 18 19 21 21 21 22 23 23 23 22 22 23 23 23 23 23 22 23 23 21 23 25 25 25 26 24 24 28 34 39 41 42 41 35 26 23 24 19 15 21 24 28 34 37 37 39 40 40 41 41 41
28 31 34 36 38 40 40 40 42 44 45 42 38 34 32 33 35 35 34 32 31 29 24 22 22 21 22 24 23 21 21 21 19 19 19 20 22 23 22 23 24 24 24 24 23 23 23 23 23 23 22 23 22 20 22 24 25 25 25 24 26 31 34 37 40 41 42 42 34 25 25 26 18 17 23 26 30 35 36 37 39 39 40 40 40
27 30 32 34 36 38 40 41 42 44 44 42 37 30 28 32 35 35 31 30 30 28 23 21 20 22 25 26 23 22 23 21 18 19 20 21 23 24 24 24 25 25 25 25 24 23 23 23 22 22 23 23 21 20 21 23 24 24 24 25 28 30 32 35 39 40 40 42 40 30 24 25 25 16 20 23 26 32 35 35 37 38 38 38 39
28 29 32 35 37 38 39 40 41 42 40 38 36 31 27 30 33 33 31 31 30 25 20 20 22 24 25 23 21 21 24 22 20 22 24 24 23 24 24 25 25 25 25 24 23 23 22 21 21 22 23 22 20 19 20 22 23 23 23 24 26 27 28 32 35 37 38 39 42 38 27 22 24 19 14 19 21 27 32 34 35 36 35 35 37
32 32 33 36 37 38 39 37 37 37 36 35 36 33 27 28 31 32 30 28 26 23 21 20 22 23 23 21 20 23 26 27 26 26 26 26 25 24 24 24 25 25 24 23 21 21 20 20 19 19 20 21 21 21 21 20 21 21 22 22 23 24 25 28 29 32 35 38 40 41 32 21 20 21 11 11 18 22 27 31 33 35 35 35 33
36 35 35 36 35 36 37 35 33 34 34 35 34 30 26 28 32 33 29 24 23 24 24 23 23 23 23 24 25 26 28 30 29 28 28 27 26 24 24 24 24 24 23 21 19 19 19 19 17 17 18 20 21 22 21 20 19 20 20 21 22 22 23 25 26 27 32 37 39 41 38 26 19 21 20 8 8 18 23 27 29 31 33 34 32
36 35 35 35 34 35 37 38 37 36 36 35 34 32 31 31 32 33 30 25 24 25 25 25 25 24 26 28 28 28 29 29 29 30 29 28 26 24 23 23 23 22 21 19 19 19 18 18 16 16 18 20 20 20 20 19 18 18 19 19 20 20 20 22 24 25 29 34 37 39 40 35 24 20 24 23 11 7 19 25 27 28 28 29 30
33 33 33 33 34 35 36 37 37 37 36 35 35 35 34 32 30 30 28 25 24 26 27 27 27 26 27 30 30 29 29 28 28 29 29 27 25 24 23 23 22 21 19 18 18 19 18 17 16 17 19 21 20 20 20 19 18 18 18 18 18 19 19 20 22 25 27 30 33 35 38 39 34 26 24 26 24 14 9 13 19 24 28 31 30
31 31 32 32 32 34 35 35 34 35 35 33 33 33 34 32 29 26 23 21 23 25 26 27 28 28 30 31 31 30 30 29 29 29 27 25 24 22 22 23 22 20 19 19 19 19 18 17 17 18 20 21 20 20 20 20 19 18 17 17 17 17 18 19 20 23 26 27 29 32 34 36 37 33 28 27 26 24 21 17 14 14 17 27 34
33 33 33 32 32 32 32 32 32 33 33 32 32 34 35 33 29 26 23 21 22 25 26 27 29 31 32 33 33 32 30 29 27 27 25 23 22 21 22 23 22 21 20 20 19 19 19 19 19 19 20 21 20 20 20 20 20 19 18 17 17 17 18 19 19 21 23 24 26 28 30 32 33 33 32 30 29 29 28 25 20 18 16 16 23
36 35 35 34 32 31 30 30 31 32 32 32 33 35 35 32 28 27 26 23 22 24 26 28 29 31 31 33 33 34 32 30 28 27 25 23 21 21 22 23 23 22 20 19 19 19 19 20 20 19 20 20 20 20 20 21 20 19 19 18 17 17 18 18 18 18 19 20 22 24 26 28 30 30 30 31 30 29 31 31 27 22 18 16 15
37 37 36 35 33 30 30 29 29 30 30 30 32 33 33 31 30 29 28 25 24 25 27 28 29 29 29 27 26 26 27 27 27 26 23 21 21 21 21 23 24 23 20 20 20 20 20 21 21 21 20 20 20 20 20 20 20 20 19 19 18 18 18 18 17 17 17 17 18 20 22 24 26 27 29 29 29 28 29 32 32 27 22 18 13
38 38 37 36 33 31 30 29 29 30 31 31 32 32 32 31 31 30 29 26 25 25 24 25 26 26 24 21 19 17 17 18 18 19 19 19 20 21 21 22 23 23 22 22 22 22 21 22 22 22 22 21 21 21 21 20 20 19 19 19 19 18 18 18 17 16 16 16 16 17 18 19 21 23 25 26 27 27 28 30 31 31 28 24 19
39 39 38 36 33 30 30 30 30 30 31 31 31 32 32 31 30 28 25 22 20 20 21 23 23 22 20 18 17 17 16 17 18 18 19 19 19 20 20 21 22 22 22 22 23 23 23 23 23 23 23 22 21 21 21 21 20 19 19 19 19 19 18 18 17 16 16 15 15 15 15 16 17 18 21 22 21 22 24 27 28 28 28 27 23
40 40 38 35 32 30 30 30 31 31 30 29 29 30 30 29 27 25 23 21 19 19 20 21 21 20 18 17 16 16 16 17 18 18 17 16 17 19 20 20 20 21 22 22 23 24 24 23 23 23 23 22 21 20 20 21 20 20 19 19 18 19 18 18 18 17 16 16 15 15 14 14 14 14 16 17 17 17 19 21 23 24 26 27 25
40 40 38 34 31 30 30 30 30 31 30 27 26 26 26 24 23 22 22 21 21 20 20 20 19 16 15 14 14 14 14 15 14 14 14 14 15 17 18 19 20 21 21 22 23 23 23 23 22 22 21 21 21 19 19 19 20 20 19 19 18 18 18 17 17 17 16 16 15 15 14 14 13 12 12 12 13 14 16 17 18 20 22 24 23
39 40 37 33 30 29 29 29 29 29 28 25 23 22 21 20 20 21 21 20 20 19 19 19 16 12 11 11 12 13 14 14 14 13 14 15 16 16 17 19 21 21 21 21 21 22 22 21 21 20 20 20 21 20 19 18 19 19 19 19 18 18 17 17 16 16 15 15 15 14 14 13 13 12 10 10 10 10 11 13 14 16 18 19 18
38 38 36 32 30 28 28 28 27 26 24 22 20 18 17 17 18 18 18 18 18 17 15 14 12 10 11 12 13 13 14 15 16 16 17 18 18 17 17 19 21 21 21 20 19 19 19 19 19 20 20 20 20 21 20 18 18 18 19 19 19 18 18 18 17 16 15 14 14 14 13 12 12 11 10 9 9 8 8 9 10 11 13 14 13
37 36 33 30 28 26 26 25 24 22 21 18 16 14 13 13 14 15 16 16 17 16 14 13 12 12 13 14 14 14 14 15 16 18 19 20 20 20 20 20 20 19 19 18 17 17 18 18 19 20 20 19 20 20 20 19 18 18 17 18 18 18 18 18 17 17 16 14 14 14 13 12 11 11 10 9 9 8 7 6 7 8 8 9 9
34 32 30 28 26 24 23 23 21 19 17 16 13 12 11 11 12 13 14 15 16 17 16 14 13 11 12 14 15 15 16 17 18 20 21 21 21 21 20 19 18 17 17 17 17 16 16 17 18 19 19 19 18 18 19 19 18 17 16 15 16 16 16 16 16 16 16 15 14 13 13 13 12 11 11 10 9 7 7 6 6 6 6 6 6
30 28 26 25 24 23 22 22 20 17 16 15 13 13 13 13 13 13 13 13 15 17 17 16 15 13 12 13 15 16 17 19 20 21 21 21 21 20 19 18 17 17 16 16 15 15 14 14 15 16 16 17 16 16 16 16 16 15 14 13 13 13 14 13 13 14 14 15 14 13 12 12 12 12 11 11 10 8 7 6 6 5 4 5 5
26 25 25 24 23 21 20 21 20 17 16 15 14 13 13 13 13 14 14 14 15 16 18 18 18 17 16 15 16 17 17 18 19 20 19 19 18 18 17 17 16 15 14 13 12 11 11 11 11 12 13 13 13 13 13 13 13 13 13 12 11 11 11 12 11 11 11 12 13 13 12 11 11 10 11 11 10 10 8 7 6 5 4 4 5
23 23 23 22 21 19 19 19 19 17 16 16 15 14 13 14 14 15 16 16 16 17 18 18 18 19 18 18 18 18 18 18 18 17 17 17 16 16 15 15 13 12 11 10 9 8 7 7 7 8 8 9 9 10 10 11 11 11 12 11 11 10 10 11 11 11 10 10 11 12 12 11 10 9 9 9 9 9 10 9 8 7 6 6 6
21 21 20 20 19 18 17 18 19 19 18 18 18 17 17 17 19 20 20 19 18 18 19 19 19 19 20 20 19 19 19 18 17 15 15 15 15 14 13 12 10 9 8 8 7 6 6 6 6 5 6 7 8 9 9 10 10 11 11 11 11 11 11 11 11 11 11 11 11 11 11 11 11 10 9 8 7 7 8 9 10 10 9 9 9
20 20 19 18 17 17 17 18 19 20 20 21 21 21 20 21 21 22 21 20 19 19 19 20 20 20 20 20 20 18 17 17 15 13 12 12 12 11 10 9 8 8 8 7 7 7 7 7 7 6 6 6 7 8 9 9 10 11 11 11 12 11 11 11 11 12 12 12 12 11 11 11 11 11 11 10 8 7 6 6 7 8 9 9 9
20 21 18 16 15 17 18 17 18 19 19 20 21 22 21 20 20 20 20 20 19 19 19 20 20 19 18 18 18 17 16 15 13 12 11 11 10 9 8 8 8 8 8 8 8 8 8 8 8 7 6 6 6 7 8 8 9 10 10 11 11 12 11 11 11 11 11 12 13 12 12 11 11 11 11 11 10 9 8 6 5 5 6 6 6
20 20 18 16 17 18 19 19 20 21 20 20 21 22 22 22 22 22 20 19 19 19 19 19 19 18 17 16 16 15 14 13 12 12 11 10 9 9 8 8 8 8 8 8 8 8 8 8 8 7 7 6 6 7 7 8 9 10 10 11 11 12 12 12 11 11 10 11 11 12 12 12 11 11 11 11 11 10 9 8 7 6 5 5 4
19 18 17 18 18 19 21 22 24 24 23 23 23 24 25 25 24 23 22 20 19 18 18 18 18 17 16 15 14 13 13 12 12 11 11 10 10 9 9 9 9 9 8 8 7 7 8 8 8 9 9 8 8 8 9 9 10 10 11 12 12 13 13 13 13 12 12 11 10 11 12 12 12 11 11 11 11 11 10 10 9 7 6 5 5
Wind_Direction
282 293 301 306 316 324 327 331 333 333 330 326 323 319 317 316 317 318 318 319 319 318 317 315 314 313 310 309 309 307 307 308 307 306 305 304 305 306 307 307 307 306 306 305 304 303 303 303 302 300 299 300 302 305 308 311 312 310 305 299 291 283 276 271 269 267 262 258 255 249 244 245 248 250 251 248 244 244 245 247 248 248 249 249 246
278 289 298 304 314 322 325 328 330 331 329 326 322 319 316 316 315 316 318 320 321 320 318 316 314 313 311 310 309 307 305 306 305 305 306 305 304 304 305 305 305 305 305 305 304 304 304 305 305 304 303 302 302 305 310 315 317 314 309 301 293 285 276 269 266 265 262 257 254 251 246 244 245 246 248 250 249 248 247 247 245 244 248 249 246
271 281 294 304 313 319 322 325 328 329 327 325 321 317 316 317 317 320 324 325 325 325 322 316 313 312 312 311 309 307 305 304 304 303 304 305 303 302 302 302 303 303 303 304 304 304 305 306 307 307 305 304 304 307 312 319 321 319 315 306 295 287 279 269 262 261 262 258 253 251 248 244 243 243 243 246 249 249 248 245 242 240 244 249 248
271 277 290 301 309 316 319 322 325 327 326 323 320 317 317 319 322 324 325 325 325 323 319 316 315 314 313 310 307 307 306 304 304 303 303 303 300 299 300 299 298 300 301 303 304 305 305 306 306 306 306 306 308 310 316 321 323 323 319 310 298 290 284 273 260 255 258 258 253 251 250 246 244 243 243 243 245 248 249 247 244 241 243 249 250
274 283 293 299 305 312 316 319 323 324 324 321 318 318 319 320 323 322 320 320 320 319 317 318 318 315 313 312 308 307 306 306 305 304 302 301 300 300 299 296 296 298 300 303 305 306 306 305 305 304 305 306 308 311 319 325 326 327 325 315 300 293 290 281 264 252 250 253 252 250 249 246 244 243 243 243 243 245 247 248 248 247 245 247 249
276 290 297 298 303 310 314 318 322 322 322 320 318 318 318 318 319 318 318 318 318 317 317 316 314 311 312 313 310 308 307 306 304 303 302 301 301 302 301 299 299 300 301 304 306 305 304 303 303 303 303 306 308 313 322 329 329 330 329 319 303 296 295 288 271 254 248 249 250 249 247 245 244 242 241 242 243 243 244 245 247 248 247 246 246
278 290 294 299 305 312 316 319 322 321 320 320 319 319 318 317 317 317 317 315 313 312 312 312 312 311 312 313 311 310 308 306 305 303 303 304 304 304 304 305 304 303 305 307 308 305 302 302 302 302 302 305 308 313 323 331 333 333 332 324 307 298 299 293 276 260 251 249 249 250 248 245 243 242 240 240 243 243 243 243 244 246 248 250 249
279 287 289 297 305 310 314 318 320 321 320 320 321 320 318 317 318 317 315 311 308 309 311 313 313 313 312 311 310 309 307 306 306 304 303 305 307 307 308 309 307 307 309 311 309 305 302 301 301 300 301 303 307 312 321 329 335 336 334 329 314 300 301 301 286 268 257 252 249 249 249 246 245 243 241 240 242 243 243 243 243 244 246 249 251
284 286 285 294 302 306 311 315 317 318 319 320 320 319 317 318 319 319 316 312 310 312 314 315 314 313 312 310 309 308 306 305 305 304 304 305 306 307 309 311 311 312 312 312 310 306 301 299 298 297 299 302 304 308 317 326 334 337 336 332 321 304 298 304 298 279 263 255 251 248 247 247 246 244 242 242 243 245 246 245 244 244 244 245 248
285 283 283 293 300 305 310 313 316 317 319 321 320 319 319 321 323 322 319 316 315 316 316 316 314 313 311 309 309 307 305 305 304 304 304 305 305 307 310 312 313 313 312 311 309 306 302 298 295 295 297 300 302 305 313 324 334 338 337 334 326 311 297 300 305 293 272 260 253 248 245 246 246 244 244 245 246 246 245 244 244 244 243 244 245
278 276 285 294 301 306 310 312 315 317 320 321 321 321 321 322 324 325 323 320 318 316 316 316 315 313 311 310 309 307 306 306 305 303 303 304 305 307 310 312 314 314 313 312 310 308 306 301 298 298 299 300 302 304 310 321 332 337 337 334 329 319 302 295 301 304 287 267 256 249 245 245 244 243 246 246 245 245 244 243 244 243 242 243 244
273 275 287 298 304 307 309 311 315 318 320 321 322 323 323 323 324 325 324 320 315 314 316 317 314 311 310 309 308 307 305 304 303 302 302 302 303 305 308 311 312 314 314 313 311 310 308 305 303 303 303 303 303 304 308 317 329 335 336 333 330 323 307 293 293 303 302 279 261 251 246 246 243 243 247 246 243 244 244 241 239 239 240 242 241
275 282 291 300 304 306 309 311 313 316 318 320 321 323 323 323 323 324 324 320 315 314 317 317 314 310 309 311 309 307 305 303 303 304 303 303 302 304 308 310 312 314 316 316 315 313 310 307 306 305 304 304 303 305 309 315 325 334 335 333 333 329 312 292 286 293 301 292 269 254 247 246 244 242 243 242 239 241 242 239 237 237 239 240 241
283 288 295 301 304 306 308 309 310 313 314 316 318 318 319 321 322 322 323 322 318 316 317 318 316 311 311 312 310 307 305 305 306 306 306 306 304 305 307 309 311 314 317 318 318 317 314 310 309 308 307 306 305 307 310 313 321 331 334 334 335 334 321 296 281 281 289 292 279 261 248 244 244 241 239 238 235 236 239 239 236 237 238 239 240
290 293 297 301 303 304 304 304 306 308 308 310 313 313 313 316 318 319 322 324 322 319 318 318 316 313 312 312 310 309 309 310 309 307 306 307 306 305 305 307 310 314 317 319 318 317 314 310 309 311 310 310 310 309 310 314 319 326 333 335 334 334 328 308 286 278 279 282 281 269 253 244 243 241 238 236 234 232 234 236 235 235 236 237 236
295 297 297 299 301 301 300 300 302 303 304 305 307 308 309 311 313 315 319 323 324 320 318 317 316 316 314 311 311 312 311 311 309 305 304 304 304 302 302 303 309 313 316 319 318 316 313 310 310 312 313 314 314 311 311 314 317 322 330 334 335 336 333 318 295 286 284 282 281 274 262 250 243 241 239 237 236 233 230 231 232 233 235 235 234
295 294 295 299 299 298 297 298 299 300 302 303 304 306 307 308 310 311 313 319 322 318 316 316 315 316 314 311 311 312 309 308 308 306 304 302 301 299 299 302 308 313 315 317 317 315 314 314 315 315 317 317 315 312 312 314 315 320 327 332 337 342 342 329 305 294 296 294 287 278 269 258 247 241 240 238 237 233 230 229 228 229 233 234 233
292 292 296 299 297 297 298 298 298 299 301 303 304 306 306 307 308 307 309 315 319 316 314 314 314 314 313 311 310 309 307 308 310 309 305 302 299 298 299 302 307 311 314 314 315 315 315 316 315 315 317 317 315 313 313 314 315 318 324 330 339 346 348 342 325 303 297 299 292 280 275 269 257 244 239 238 236 233 232 231 228 228 232 235 234
291 292 294 294 295 297 297 297 298 300 302 303 304 305 306 307 306 306 306 310 314 313 313 313 314 313 310 308 307 306 306 307 310 310 306 302 299 298 300 304 307 310 312 313 314 316 316 316 315 314 316 317 316 314 314 314 317 319 321 328 339 346 348 348 341 321 305 304 297 282 276 273 266 251 240 237 237 234 234 234 232 230 232 234 234
296 294 293 293 294 295 295 295 298 300 301 302 303 304 305 305 304 303 302 304 308 310 311 313 314 311 307 304 302 301 304 308 310 310 308 302 300 301 305 307 308 309 310 312 314 316 317 317 315 315 317 317 314 315 316 318 320 319 320 328 340 345 347 350 349 338 326 324 319 301 283 274 267 254 241 236 237 237 235 234 232 230 232 234 233
299 297 296 295 294 295 295 296 297 298 298 298 298 300 302 303 303 300 297 300 305 307 309 310 311 308 303 297 295 298 304 308 308 307 305 303 303 306 310 310 309 309 310 312 314 316 318 317 315 315 316 315 312 316 319 320 319 317 319 330 340 342 344 348 351 351 343 340 340 327 298 277 266 255 242 234 234 236 236 233 231 230 232 234 232
292 293 294 294 293 295 296 295 296 297 296 295 296 297 298 299 298 296 295 296 300 302 304 305 306 305 298 291 290 296 303 306 306 303 301 301 305 310 312 311 309 309 311 313 315 317 318 318 316 316 316 313 312 316 319 321 321 320 323 332 337 339 343 346 351 355 352 343 345 344 318 282 265 255 243 233 229 231 233 233 232 231 232 233 231
286 287 289 291 291 292 294 294 295 295 295 295 295 295 295 294 293 292 290 290 295 298 296 297 303 304 299 294 293 296 300 304 303 299 299 302 307 311 313 312 310 311 313 315 316 318 320 318 316 316 315 313 314 319 322 326 330 331 331 332 335 339 343 344 347 355 358 348 341 347 344 304 264 254 246 235 229 228 229 230 232 232 232 233 232
285 284 284 287 288 290 291 291 290 290 290 290 289 292 295 293 289 288 287 289 297 299 295 299 311 312 303 296 293 294 300 305 304 302 305 307 308 311 313 312 311 311 313 314 316 318 320 319 317 316 314 314 317 323 328 330 333 337 337 335 336 340 342 343 345 351 358 357 347 344 351 340 285 255 249 238 229 229 230 229 230 231 231 233 235
289 287 286 286 285 286 288 287 286 287 287 284 281 285 290 289 287 288 289 293 301 302 301 311 321 316 304 297 292 293 299 304 305 306 308 307 306 309 312 311 311 312 311 311 314 317 319 319 316 313 311 313 317 321 325 327 331 337 339 337 337 339 340 342 345 347 354 1 358 347 349 354 334 276 256 244 231 229 231 232 231 231 231 232 234
294 292 290 288 285 285 288 289 289 288 286 282 278 280 287 290 289 288 290 295 297 296 302 316 314 303 301 300 296 294 296 298 303 305 306 305 305 307 308 310 311 311 309 309 311 313 314 314 313 311 310 311 313 316 320 324 329 334 335 334 336 338 339 342 345 346 350 359 3 356 348 356 357 321 269 252 238 230 230 232 233 232 232 231 232
301 295 291 288 287 288 289 290 291 290 287 284 282 282 286 290 290 290 293 297 293 290 300 313 305 299 301 301 296 293 294 299 307 307 306 306 305 304 304 307 309 308 307 308 309 310 310 311 311 311 310 309 311 315 318 322 326 330 333 333 334 337 341 342 344 346 348 355 4 5 356 354 3 352 290 257 245 234 231 232 233 232 230 230 230
306 299 292 288 290 291 290 290 293 294 295 297 293 288 288 292 294 294 294 294 293 296 304 306 301 299 300 298 297 298 298 302 306 306 304 302 301 300 301 304 307 308 307 307 308 307 308 310 310 310 309 309 314 317 318 322 326 328 331 333 333 335 339 341 343 346 349 352 0 7 6 357 3 10 351 261 242 236 231 230 231 232 232 230 229
306 302 297 294 294 294 293 294 295 295 298 303 301 295 294 298 299 296 291 291 300 307 306 301 298 298 297 295 298 298 296 297 299 300 300 299 297 297 299 303 307 309 307 307 308 307 308 310 310 308 307 310 315 316 316 320 324 326 327 328 330 333 336 340 344 348 350 351 355 5 11 9 4 14 24 26 230 228 226 226 227 228 230 231 231
304 303 302 299 296 294 294 295 296 296 297 300 300 296 297 300 299 295 294 300 307 306 300 297 297 297 294 292 292 291 290 292 294 296 298 298 295 295 297 302 307 306 304 304 306 306 307 308 308 308 309 313 315 314 314 317 319 322 325 324 327 331 334 338 343 344 346 351 353 359 10 18 18 19 28 35 46 188 209 218 224 225 227 229 229
305 303 302 300 296 294 293 294 295 296 297 297 297 295 295 296 294 289 290 297 300 297 295 295 295 293 291 289 288 288 288 289 290 293 296 295 293 293 295 300 303 301 297 299 302 304 305 305 307 309 309 311 313 313 314 316 316 319 324 325 326 330 333 336 341 343 345 351 354 355 4 16 26 32 33 33 37 58 117 172 200 214 223 228 227
308 306 304 300 296 293 293 292 293 293 293 294 295 293 291 292 292 288 286 292 296 295 294 294 292 289 287 287 289 290 290 287 285 288 291 291 290 290 292 296 298 294 290 293 298 302 305 306 308 309 306 305 309 311 312 315 316 317 322 324 324 327 331 335 342 346 348 351 355 356 0 9 22 33 41 41 38 42 58 84 121 155 191 212 220
310 309 305 301 297 293 291 291 290 290 289 290 290 290 289 290 292 292 290 291 293 293 292 291 290 287 285 285 286 288 288 285 282 282 285 286 285 286 289 292 292 288 285 288 294 300 304 306 306 307 305 303 305 308 310 312 315 316 317 319 321 322 327 333 338 342 347 351 355 359 1 4 13 26 37 42 42 42 47 56 70 81 99 146 182
310 310 307 303 298 294 291 290 289 288 288 289 290 290 289 290 291 293 294 291 289 289 291 291 290 289 288 288 289 288 285 282 279 279 281 281 280 283 287 288 288 287 285 288 294 298 300 302 303 304 305 304 304 307 309 309 311 314 313 314 316 317 319 325 329 332 340 348 352 356 360 3 7 15 25 32 36 37 38 40 46 58 73 94 124
310 310 308 305 300 295 292 291 288 287 287 288 288 289 291 293 294 294 292 288 288 290 291 290 290 291 293 295 296 294 288 282 279 278 277 274 274 280 285 285 286 289 290 291 296 298 298 299 301 302 304 304 303 303 305 305 307 310 311 310 311 312 313 316 321 324 330 338 346 351 357 1 4 8 15 22 28 31 31 31 35 45 58 71 91
310 310 308 306 301 296 292 291 288 286 285 284 284 286 289 293 295 292 287 286 288 288 286 287 290 294 296 297 298 297 291 282 276 270 267 269 274 278 282 284 286 289 293 294 297 298 297 298 300 302 303 303 302 301 302 302 303 305 307 308 309 311 313 315 317 319 323 329 337 345 351 356 1 6 10 16 22 25 25 25 27 33 43 53 69
309 310 310 307 302 296 292 291 288 286 285 286 287 289 289 291 292 290 287 286 287 285 287 291 293 295 296 294 292 292 288 278 272 268 265 270 277 280 281 284 286 289 292 294 294 295 296 297 299 301 301 302 301 301 300 301 301 301 302 304 306 309 312 315 318 319 321 323 328 335 341 347 354 0 7 16 20 16 15 18 20 24 34 44 54
308 310 309 306 300 295 292 289 287 287 287 288 289 289 290 290 290 289 288 291 293 293 295 297 296 297 299 296 291 290 287 281 278 276 274 274 279 282 284 286 287 289 290 292 292 294 296 297 299 300 301 301 302 302 302 302 303 303 302 302 303 305 308 312 316 320 321 320 321 324 328 335 343 349 358 10 17 11 8 12 15 18 26 36 45
307 309 307 303 297 294 291 288 288 289 290 291 290 288 289 290 288 286 289 293 295 295 294 294 297 301 300 293 287 286 288 287 286 286 284 281 281 282 285 287 289 288 288 291 293 294 295 297 299 300 301 302 303 305 306 306 306 306 306 306 305 305 306 308 310 313 316 317 317 318 319 322 330 338 344 355 5 5 5 8 10 12 19 28 34
305 306 304 299 295 291 289 288 288 288 289 290 289 287 287 289 287 288 292 295 294 293 293 293 295 296 291 287 287 288 289 290 291 291 291 289 286 286 290 293 292 291 292 293 294 295 296 298 300 300 302 303 304 306 308 308 307 307 308 310 310 309 309 309 307 307 310 312 313 314 314 313 316 323 330 338 347 356 1 2 1 6 15 22 28
304 302 299 295 292 289 287 286 287 288 288 288 287 286 286 287 287 287 290 291 291 293 294 293 289 282 278 282 286 286 286 290 294 295 295 293 291 294 298 298 296 295 296 296 295 295 297 299 300 300 301 302 303 304 306 305 306 306 308 310 313 314 314 314 313 310 308 309 310 311 311 309 308 310 313 318 325 336 349 355 355 1 10 14 18
301 299 296 293 290 288 287 286 285 286 287 288 289 288 286 286 286 284 286 289 290 291 290 286 281 278 277 279 281 282 285 290 294 296 297 298 299 302 302 300 297 296 296 296 296 296 296 298 299 299 299 300 300 302 304 305 307 308 309 310 312 314 315 315 315 314 312 310 310 310 309 307 304 300 300 302 306 311 319 333 344 350 356 0 5
297 295 293 291 288 286 285 283 282 282 285 289 293 294 291 289 288 288 289 291 291 289 287 282 280 281 281 280 282 287 291 295 297 298 298 300 301 301 300 298 297 297 296 297 297 296 295 295 296 297 298 300 301 303 306 310 313 315 315 313 312 314 315 315 314 315 315 314 312 311 310 309 305 299 294 291 291 295 299 304 315 326 330 335 343
293 291 289 287 286 284 282 278 276 277 284 289 292 294 294 291 289 289 290 290 289 290 291 292 295 298 295 291 291 293 295 295 295 295 296 297 297 296 295 296 297 296 296 296 296 295 294 293 295 297 300 303 307 310 314 317 320 323 326 326 323 320 320 321 320 319 318 318 318 317 314 311 309 305 299 291 284 282 286 291 298 307 316 321 325
288 287 286 285 284 283 280 276 274 277 285 292 295 295 292 288 287 289 291 290 288 288 288 292 298 302 303 301 298 297 294 291 290 291 292 293 292 292 294 296 296 296 296 296 295 295 294 293 295 300 304 308 314 320 324 326 329 332 335 340 341 338 335 336 337 336 332 327 327 327 325 321 317 312 307 301 292 284 280 281 285 288 291 302 311
284 284 283 284 284 284 281 280 281 283 287 292 295 294 290 285 283 282 283 285 285 285 286 289 293 297 300 301 299 297 295 293 292 292 291 290 290 291 293 295 296 297 299 301 300 301 302 302 301 304 308 313 318 324 326 329 331 333 336 341 346 347 347 345 345 348 349 345 341 339 338 337 334 328 321 314 305 295 286 280 279 278 277 281 289
282 282 283 285 286 283 281 281 284 288 291 292 293 292 289 286 283 281 282 282 281 280 282 286 289 291 294 296 296 296 295 293 291 290 288 288 290 292 292 294 298 300 301 305 308 308 309 308 307 308 310 312 313 316 318 321 323 325 329 332 335 337 340 341 340 342 345 347 348 347 346 346 347 346 342 336 327 315 299 287 281 279 277 278 282
281 282 285 286 285 283 282 283 287 291 293 292 290 288 284 280 279 281 283 284 282 280 280 282 286 288 291 292 293 294 294 291 289 286 285 285 287 288 288 289 293 296 297 301 304 305 304 305 307 309 308 306 306 307 309 313 317 320 323 326 327 329 331 331 331 331 333 335 338 340 342 343 345 348 350 351 350 346 335 315 298 290 284 279 276
283 286 287 284 282 283 284 287 291 294 296 297 298 296 292 287 287 288 287 284 282 280 278 279 282 284 286 288 291 292 291 288 286 285 285 282 279 277 279 281 282 284 288 290 292 295 298 299 301 303 303 302 303 304 307 311 316 319 322 323 325 326 327 327 326 325 324 325 326 328 330 332 333 335 339 343 345 348 352 350 340 324 309 296 282
286 290 292 291 292 295 296 299 303 305 305 306 307 305 301 299 299 298 295 290 284 279 276 276 279 282 284 286 286 284 281 280 280 281 279 276 272 271 274 276 277 279 282 284 285 289 292 295 298 301 305 310 312 312 313 316 317 319 321 322 323 323 323 323 324 322 319 317 317 318 318 320 321 321 322 324 327 330 335 340 346 348 345 334 322
284 287 288 289 292 295 296 298 302 303 301 298 294 289 286 287 288 290 291 291 285 279 276 276 278 281 283 281 276 273 272 273 275 274 271 269 270 272 273 275 277 278 280 282 286 291 295 300 304 306 310 317 322 320 320 321 321 320 321 321 321 322 322 321 320 321 319 316 312 309 307 308 309 309 309 309 310 313 315 319 323 328 332 334 335
Height
3181 3181 3180 3179 3178 3176 3175 3173 3172 3170 3169 3167 3166 3164 3163 3162 3161 3160 3159 3158 3156 3155 3153 3152 3150 3149 3149 3147 3146 3145 3144 3144 3142 3141 3140 3140 3139 3138 3136 3135 3134 3133 3132 3130 3129 3127 3125 3124 3123 3123 3122 3121 3119 3117 3116 3115 3113 3112 3109 3106 3105 3104 3102 3101 3099 3097 3100 3103 3104 3105 3107 3108 3109 3111 3114 3115 3117 3118 3120 3122 3123 3125 3126 3128 3130
3179 3178 3177 3177 3176 3174 3173 3171 3169 3168 3166 3165 3163 3162 3161 3160 3159 3158 3157 3156 3154 3153 3151 3150 3148 3147 3146 3145 3144 3143 3142 3141 3140 3139 3138 3138 3137 3136 3134 3133 3131 3130 3129 3128 3126 3125 3123 3121 3120 3119 3118 3117 3116 3114 3112 3110 3108 3106 3104 3100 3098 3097 3097 3095 3094 3093 3093 3096 3099 3100 3102 3103 3103 3106 3109 3110 3112 3114 3115 3117 3118 3121 3124 3125 3125
3177 3177 3176 3174 3173 3172 3170 3169 3167 3166 3164 3163 3161 3160 3159 3157 3156 3154 3154 3153 3151 3150 3149 3148 3146 3145 3144 3143 3142 3141 3140 3139 3138 3137 3136 3136 3135 3134 3132 3131 3129 3128 3126 3125 3124 3123 3121 3119 3117 3116 3115 3114 3112 3110 3108 3106 3103 3100 3097 3094 3091 3090 3090 3089 3088 3087 3086 3089 3092 3093 3096 3097 3098 3101 3104 3105 3106 3108 3109 3112 3114 3116 3119 3121 3121
3173 3175 3174 3173 3172 3170 3168 3167 3165 3163 3162 3160 3159 3158 3157 3155 3154 3152 3150 3150 3149 3148 3147 3145 3144 3143 3142 3141 3140 3139 3138 3137 3136 3135 3135 3134 3132 3131 3130 3128 3127 3126 3124 3123 3121 3120 3118 3117 3115 3112 3111 3110 3108 3107 3105 3101 3098 3095 3091 3088 3086 3085 3084 3083 3081 3081 3081 3082 3084 3087 3089 3092 3093 3095 3098 3099 3101 3102 3103 3105 3108 3110 3113 3114 3115
3169 3171 3172 3170 3170 3169 3166 3164 3163 3161 3160 3159 3157 3156 3155 3154 3153 3151 3150 3148 3147 3146 3144 3143 3141 3140 3139 3139 3138 3137 3135 3134 3133 3132 3132 3131 3129 3129 3127 3126 3125 3124 3123 3120 3118 3117 3115 3114 3112 3110 3108 3106 3104 3103 3101 3097 3093 3090 3086 3083 3081 3079 3078 3077 3075 3075 3075 3075 3077 3080 3083 3086 3087 3089 3092 3093 3095 3096 3098 3099 3101 3103 3106 3108 3109
3166 3167 3168 3167 3166 3166 3164 3162 3160 3158 3157 3157 3156 3155 3154 3153 3152 3150 3148 3146 3145 3143 3142 3141 3140 3138 3137 3136 3135 3134 3133 3132 3131 3130 3129 3128 3127 3127 3125 3123 3122 3122 3120 3118 3116 3114 3112 3111 3109 3107 3105 3103 3101 3099 3097 3094 3090 3086 3082 3078 3076 3074 3073 3071 3069 3068 3069 3070 3072 3073 3076 3079 3081 3083 3086 3088 3089 3091 3092 3094 3095 3097 3100 3102 3104
3164 3165 3165 3163 3162 3161 3160 3159 3157 3156 3155 3154 3153 3153 3152 3151 3150 3148 3146 3144 3143 3142 3141 3139 3138 3137 3135 3134 3133 3132 3131 3130 3129 3127 3126 3125 3124 3123 3122 3121 3119 3119 3117 3115 3113 3111 3109 3108 3106 3104 3102 3100 3099 3097 3094 3091 3087 3083 3078 3074 3072 3070 3068 3065 3064 3063 3064 3065 3067 3068 3070 3073 3075 3077 3080 3082 3083 3084 3086 3087 3089 3092 3095 3097 3099
3164 3165 3164 3162 3160 3158 3157 3156 3154 3154 3153 3152 3151 3150 3149 3148 3147 3146 3144 3143 3142 3140 3139 3137 3136 3135 3134 3132 3131 3130 3128 3127 3126 3125 3123 3122 3120 3119 3118 3117 3116 3115 3113 3112 3110 3108 3107 3105 3104 3102 3100 3098 3096 3094 3092 3088 3084 3080 3076 3072 3068 3066 3064 3062 3060 3059 3059 3060 3062 3063 3065 3067 3069 3072 3074 3076 3076 3078 3080 3082 3085 3088 3091 3092 3094
3162 3163 3162 3160 3159 3157 3156 3154 3153 3152 3151 3150 3149 3148 3147 3146 3145 3144 3142 3141 3140 3138 3137 3135 3134 3133 3132 3131 3130 3128 3126 3125 3124 3123 3121 3119 3118 3116 3115 3114 3112 3111 3110 3109 3107 3106 3104 3103 3102 3099 3097 3096 3094 3092 3090 3087 3082 3078 3074 3070 3065 3063 3061 3059 3056 3055 3055 3055 3057 3058 3059 3061 3063 3066 3068 3069 3071 3073 3076 3078 3080 3083 3086 3087 3088
3160 3160 3160 3159 3158 3156 3154 3152 3151 3150 3149 3148 3147 3146 3145 3144 3142 3141 3140 3138 3137 3136 3135 3133 3132 3131 3130 3129 3128 3126 3124 3123 3122 3120 3119 3117 3115 3114 3112 3111 3110 3108 3107 3106 3104 3103 3101 3100 3099 3097 3095 3093 3091 3089 3087 3085 3080 3076 3072 3068 3064 3060 3057 3056 3054 3052 3050 3050 3051 3053 3054 3055 3058 3060 3062 3064 3066 3068 3071 3072 3074 3078 3080 3081 3082
3158 3157 3157 3157 3155 3153 3151 3150 3148 3148 3147 3146 3145 3144 3143 3141 3140 3139 3138 3136 3135 3134 3133 3132 3130 3129 3127 3126 3125 3124 3122 3121 3119 3118 3117 3115 3113 3111 3110 3109 3107 3106 3104 3103 3101 3100 3098 3097 3095 3093 3092 3090 3088 3086 3084 3081 3078 3074 3070 3066 3062 3058 3055 3053 3051 3049 3047 3046 3046 3048 3049 3050 3053 3055 3056 3058 3060 3062 3064 3066 3068 3072 3074 3074 3077
3155 3155 3154 3154 3152 3150 3149 3147 3146 3145 3144 3144 3143 3142 3141 3139 3138 3137 3135 3134 3133 3132 3131 3129 3128 3126 3125 3124 3122 3121 3120 3118 3117 3115 3114 3113 3111 3109 3107 3106 3105 3104 3102 3100 3099 3097 3096 3094 3092 3090 3089 3087 3085 3082 3080 3078 3076 3073 3069 3065 3061 3057 3053 3050 3048 3046 3044 3042 3042 3043 3044 3044 3047 3049 3051 3052 3055 3057 3059 3061 3063 3066 3068 3069 3072
3152 3152 3151 3150 3149 3147 3146 3145 3144 3143 3142 3142 3140 3139 3138 3137 3136 3135 3133 3132 3131 3130 3129 3127 3126 3124 3123 3121 3120 3119 3117 3116 3114 3113 3112 3110 3108 3106 3105 3104 3102 3101 3100 3098 3096 3095 3093 3091 3090 3088 3086 3084 3082 3079 3077 3075 3073 3070 3067 3063 3059 3055 3051 3048 3046 3043 3041 3039 3037 3037 3038 3039 3041 3044 3046 3048 3049 3052 3054 3056 3058 3061 3062 3064 3067
3150 3149 3148 3147 3146 3145 3144 3143 3141 3141 3140 3139 3138 3137 3136 3135 3134 3132 3131 3130 3128 3127 3126 3125 3123 3122 3120 3119 3117 3116 3115 3114 3112 3111 3109 3108 3106 3104 3103 3102 3100 3099 3097 3096 3094 3092 3090 3088 3087 3085 3084 3081 3079 3076 3073 3072 3070 3067 3064 3059 3055 3051 3047 3044 3042 3040 3038 3035 3033 3031 3033 3034 3035 3038 3041 3043 3043 3046 3049 3051 3053 3056 3058 3060 3063
3146 3146 3145 3144 3143 3142 3141 3140 3139 3138 3137 3137 3136 3135 3134 3133 3132 3131 3129 3127 3126 3124 3124 3122 3121 3120 3118 3116 3115 3114 3113 3112 3111 3109 3107 3105 3104 3102 3101 3099 3098 3097 3095 3093 3092 3090 3088 3086 3084 3082 3081 3079 3076 3073 3070 3068 3066 3064 3060 3056 3052 3048 3044 3040 3038 3036 3034 3031 3028 3026 3026 3028 3030 3033 3036 3038 3038 3040 3044 3046 3048 3050 3053 3055 3058
3143 3142 3142 3141 3141 3140 3138 3138 3137 3136 3135 3134 3134 3133 3131 3130 3129 3128 3127 3125 3123 3122 3121 3120 3119 3117 3116 3114 3113 3112 3111 3110 3109 3107 3105 3103 3101 3100 3098 3097 3096 3094 3093 3091 3089 3088 3086 3084 3082 3080 3078 3076 3073 3070 3068 3065 3063 3061 3057 3053 3049 3045 3041 3037 3034 3032 3030 3027 3024 3022 3021 3023 3025 3028 3031 3033 3034 3036 3039 3040 3042 3045 3047 3049 3052
3140 3139 3139 3138 3138 3137 3136 3135 3134 3133 3132 3131 3131 3129 3128 3127 3126 3125 3123 3122 3121 3120 3119 3118 3116 3115 3113 3112 3110 3109 3108 3107 3106 3105 3103 3101 3099 3097 3095 3094 3093 3092 3091 3089 3087 3085 3084 3081 3079 3077 3075 3073 3071 3068 3065 3063 3061 3058 3054 3051 3047 3043 3038 3034 3031 3029 3026 3023 3021 3018 3017 3018 3020 3023 3026 3028 3030 3033 3034 3034 3036 3039 3041 3044 3047
3138 3137 3137 3136 3134 3133 3133 3132 3131 3130 3130 3129 3127 3126 3125 3124 3123 3122 3120 3119 3118 3117 3117 3115 3114 3113 3111 3109 3108 3107 3105 3104 3103 3102 3100 3098 3096 3094 3093 3092 3091 3089 3088 3087 3085 3083 3081 3079 3076 3074 3072 3071 3068 3065 3063 3060 3058 3056 3052 3048 3044 3040 3036 3031 3027 3024 3022 3020 3017 3015 3013 3013 3014 3017 3020 3022 3025 3028 3028 3029 3033 3035 3036 3039 3043
3137 3136 3135 3133 3132 3130 3129 3128 3128 3127 3126 3125 3124 3123 3122 3121 3119 3118 3117 3116 3115 3115 3114 3113 3111 3110 3108 3107 3105 3104 3103 3102 3101 3099 3097 3095 3093 3092 3090 3089 3088 3087 3085 3084 3083 3081 3079 3077 3075 3072 3070 3068 3066 3063 3060 3058 3056 3053 3050 3046 3042 3038 3033 3028 3023 3019 3017 3015 3013 3011 3010 3009 3009 3011 3014 3017 3020 3021 3022 3025 3030 3031 3032 3034 3038
3133 3132 3131 3130 3129 3128 3126 3125 3124 3123 3122 3121 3120 3119 3118 3117 3116 3115 3114 3113 3112 3112 3111 3110 3108 3107 3106 3105 3103 3101 3100 3100 3099 3097 3095 3093 3091 3089 3088 3086 3085 3084 3083 3081 3080 3079 3077 3075 3073 3070 3068 3066 3063 3061 3059 3056 3054 3051 3048 3044 3040 3035 3030 3026 3021 3017 3014 3011 3008 3006 3004 3003 3003 3005 3007 3010 3013 3015 3017 3020 3024 3027 3028 3030 3033
3128 3127 3126 3125 3124 3124 3123 3121 3120 3119 3119 3118 3116 3116 3115 3114 3113 3112 3111 3111 3110 3109 3108 3107 3106 3104 3103 3102 3100 3098 3097 3097 3096 3095 3093 3091 3089 3087 3085 3084 3083 3082 3081 3079 3077 3076 3074 3073 3071 3069 3066 3064 3061 3059 3057 3055 3052 3050 3046 3043 3039 3034 3029 3026 3021 3016 3012 3009 3005 3002 2999 2998 2998 2999 3001 3004 3006 3009 3012 3015 3019 3022 3024 3026 3029
3126 3124 3123 3121 3120 3120 3119 3116 3115 3115 3114 3114 3113 3112 3111 3111 3110 3109 3108 3108 3108 3107 3106 3105 3103 3101 3100 3099 3097 3096 3095 3094 3093 3092 3091 3089 3087 3085 3083 3082 3081 3079 3078 3077 3075 3073 3072 3070 3069 3067 3064 3061 3059 3057 3056 3053 3051 3047 3044 3041 3038 3033 3029 3025 3020 3015 3010 3006 3003 2999 2995 2993 2993 2994 2995 2997 3000 3003 3007 3011 3014 3017 3020 3023 3026
3125 3123 3121 3119 3117 3116 3115 3113 3111 3110 3109 3109 3108 3107 3107 3107 3106 3105 3104 3104 3105 3105 3103 3101 3099 3097 3096 3096 3095 3093 3092 3091 3091 3090 3088 3086 3084 3082 3081 3079 3078 3077 3076 3074 3073 3071 3070 3068 3066 3065 3062 3059 3057 3056 3054 3052 3049 3046 3042 3040 3037 3032 3028 3025 3020 3014 3009 3005 3001 2997 2993 2990 2989 2990 2990 2992 2995 2998 3002 3006 3009 3013 3016 3019 3022
3122 3120 3119 3116 3114 3112 3111 3110 3107 3105 3104 3103 3101 3101 3102 3102 3101 3101 3100 3100 3101 3102 3100 3097 3096 3094 3093 3093 3092 3090 3088 3088 3087 3086 3084 3083 3081 3080 3078 3077 3076 3075 3073 3072 3070 3069 3067 3065 3064 3062 3060 3057 3056 3054 3052 3049 3047 3044 3041 3039 3036 3032 3028 3024 3019 3014 3009 3004 2999 2996 2992 2989 2987 2986 2986 2988 2991 2994 2998 3001 3005 3008 3012 3015 3018
3118 3117 3115 3113 3111 3109 3107 3105 3102 3100 3098 3096 3094 3094 3096 3095 3095 3095 3096 3096 3096 3097 3096 3094 3092 3091 3091 3090 3089 3086 3085 3085 3084 3083 3082 3080 3079 3078 3077 3075 3074 3072 3070 3069 3067 3066 3064 3063 3061 3059 3057 3055 3054 3053 3050 3048 3046 3043 3040 3038 3035 3031 3027 3023 3018 3013 3008 3003 2998 2995 2992 2989 2985 2984 2984 2985 2988 2991 2994 2997 3000 3003 3007 3011 3014
3114 3113 3111 3109 3107 3106 3103 3101 3098 3095 3092 3088 3086 3086 3088 3090 3090 3092 3093 3093 3093 3093 3092 3090 3089 3089 3088 3087 3085 3082 3081 3082 3082 3081 3079 3078 3077 3075 3075 3073 3071 3069 3067 3066 3065 3063 3062 3060 3058 3057 3055 3053 3052 3051 3049 3047 3044 3042 3039 3037 3035 3031 3027 3023 3018 3013 3008 3004 2999 2995 2992 2989 2985 2983 2982 2983 2985 2988 2990 2993 2996 2999 3002 3006 3008
3110 3109 3107 3105 3103 3101 3100 3098 3094 3090 3088 3086 3084 3082 3083 3084 3087 3088 3089 3089 3089 3090 3088 3086 3085 3085 3084 3083 3081 3078 3076 3077 3079 3078 3076 3075 3074 3073 3072 3071 3069 3067 3065 3063 3062 3061 3059 3058 3056 3055 3053 3051 3050 3049 3048 3045 3043 3041 3038 3036 3034 3031 3028 3023 3019 3014 3009 3005 3001 2996 2992 2989 2986 2982 2980 2980 2982 2984 2987 2990 2992 2995 2998 3000 3003
3106 3105 3103 3101 3099 3097 3095 3094 3091 3089 3088 3087 3085 3083 3083 3082 3083 3084 3085 3085 3085 3084 3083 3081 3081 3080 3079 3078 3077 3076 3073 3073 3074 3074 3073 3072 3071 3070 3069 3068 3066 3064 3062 3061 3060 3058 3057 3056 3054 3053 3051 3049 3047 3046 3045 3044 3042 3040 3038 3036 3033 3031 3028 3024 3020 3016 3011 3006 3002 2998 2993 2989 2986 2982 2979 2977 2979 2981 2983 2986 2988 2991 2993 2995 2998
3101 3100 3098 3097 3095 3092 3090 3088 3087 3086 3085 3084 3083 3083 3083 3082 3080 3079 3079 3080 3079 3078 3077 3077 3077 3076 3074 3073 3073 3073 3071 3070 3070 3070 3069 3069 3068 3067 3066 3065 3063 3061 3059 3058 3057 3056 3054 3053 3052 3051 3049 3047 3046 3044 3043 3042 3040 3038 3037 3035 3033 3030 3028 3024 3021 3017 3012 3007 3003 2999 2994 2989 2987 2984 2980 2977 2976 2978 2980 2982 2984 2987 2989 2992 2995
3097 3096 3094 3093 3092 3089 3086 3084 3083 3082 3081 3080 3079 3079 3079 3078 3077 3075 3075 3075 3075 3075 3075 3074 3074 3073 3071 3070 3070 3070 3069 3067 3067 3066 3065 3065 3064 3063 3063 3062 3060 3059 3057 3055 3054 3053 3052 3051 3050 3049 3047 3045 3044 3043 3041 3040 3039 3038 3036 3034 3032 3030 3027 3024 3021 3017 3014 3009 3004 3000 2996 2991 2987 2985 2981 2978 2976 2976 2977 2978 2981 2984 2987 2989 2992
3094 3092 3091 3089 3088 3086 3083 3081 3080 3079 3078 3076 3075 3073 3073 3073 3074 3074 3074 3075 3074 3074 3073 3071 3070 3069 3068 3066 3066 3066 3065 3063 3063 3062 3061 3061 3060 3060 3059 3058 3057 3056 3054 3053 3052 3050 3050 3049 3048 3047 3045 3043 3042 3041 3040 3038 3037 3036 3035 3033 3031 3029 3027 3024 3021 3017 3014 3010 3006 3002 2998 2994 2989 2986 2984 2981 2979 2977 2976 2975 2977 2980 2983 2985 2988
3090 3089 3087 3086 3084 3082 3080 3079 3078 3076 3074 3073 3072 3070 3069 3070 3071 3073 3073 3073 3072 3071 3070 3068 3066 3064 3063 3062 3061 3061 3060 3059 3059 3058 3058 3057 3057 3056 3056 3055 3054 3053 3052 3051 3049 3048 3048 3047 3046 3045 3044 3042 3041 3040 3038 3037 3035 3034 3033 3032 3030 3028 3026 3023 3021 3017 3014 3011 3008 3004 3001 2997 2993 2989 2986 2984 2983 2981 2978 2974 2975 2978 2980 2981 2985
3086 3085 3083 3081 3080 3078 3077 3076 3074 3072 3071 3070 3069 3068 3066 3066 3068 3069 3069 3069 3068 3067 3065 3063 3062 3060 3059 3057 3056 3056 3056 3055 3055 3054 3054 3054 3053 3053 3052 3052 3051 3050 3049 3048 3047 3046 3046 3045 3044 3043 3042 3040 3039 3038 3036 3035 3034 3032 3032 3031 3029 3027 3025 3023 3021 3018 3015 3013 3010 3007 3003 3000 2997 2994 2990 2987 2985 2984 2981 2978 2978 2980 2979 2978 2979
3082 3081 3079 3077 3076 3074 3073 3072 3071 3069 3068 3067 3065 3063 3062 3062 3063 3063 3063 3063 3063 3062 3060 3059 3057 3056 3054 3053 3052 3051 3051 3051 3051 3051 3051 3050 3050 3049 3049 3048 3047 3047 3047 3046 3045 3045 3044 3043 3042 3041 3040 3038 3037 3036 3034 3033 3032 3031 3030 3029 3028 3026 3024 3023 3021 3019 3017 3014 3012 3009 3006 3003 3000 2997 2994 2991 2989 2987 2986 2984 2983 2981 2978 2975 2974
3078 3076 3075 3073 3072 3070 3069 3068 3067 3065 3064 3063 3061 3059 3058 3058 3058 3059 3058 3058 3058 3057 3056 3054 3053 3052 3051 3051 3050 3048 3047 3046 3046 3047 3047 3047 3046 3046 3046 3045 3044 3044 3044 3044 3043 3042 3041 3040 3039 3038 3037 3036 3035 3033 3032 3031 3030 3029 3028 3027 3026 3025 3023 3022 3020 3018 3017 3015 3013 3011 3008 3005 3002 3000 2998 2996 2993 2991 2991 2990 2988 2984 2980 2978 2977
3074 3072 3070 3069 3068 3066 3065 3064 3063 3062 3061 3059 3057 3056 3056 3056 3056 3055 3055 3054 3054 3053 3053 3051 3050 3049 3049 3048 3047 3045 3043 3043 3043 3043 3043 3043 3043 3043 3043 3043 3042 3041 3041 3041 3040 3039 3038 3037 3036 3035 3034 3034 3032 3031 3030 3029 3028 3027 3026 3025 3024 3023 3022 3021 3019 3018 3016 3015 3013 3012 3010 3008 3005 3003 3001 2999 2997 2995 2994 2993 2991 2988 2985 2984 2982
3070 3068 3066 3065 3064 3062 3061 3060 3058 3057 3056 3055 3054 3053 3053 3052 3052 3051 3050 3050 3050 3050 3049 3048 3047 3046 3046 3045 3043 3042 3041 3041 3040 3040 3041 3041 3040 3040 3041 3040 3039 3039 3039 3038 3037 3036 3035 3034 3033 3032 3031 3031 3030 3029 3027 3026 3025 3025 3024 3023 3022 3021 3020 3019 3018 3017 3016 3015 3013 3012 3011 3009 3007 3005 3003 3001 3000 2998 2997 2995 2994 2992 2990 2988 2987
3066 3064 3062 3061 3060 3059 3057 3055 3054 3053 3052 3052 3051 3050 3048 3048 3047 3046 3045 3045 3045 3045 3044 3044 3043 3043 3043 3042 3041 3040 3039 3038 3038 3038 3038 3039 3039 3038 3038 3037 3037 3036 3036 3035 3034 3033 3032 3031 3030 3029 3028 3028 3027 3026 3025 3024 3023 3022 3021 3020 3020 3019 3018 3017 3017 3015 3014 3013 3012 3012 3011 3009 3008 3006 3005 3003 3002 3000 2999 2998 2996 2995 2994 2992 2990
3061 3060 3059 3057 3056 3054 3053 3051 3050 3049 3048 3048 3047 3046 3045 3044 3044 3042 3042 3041 3041 3041 3040 3040 3040 3040 3039 3039 3038 3038 3037 3036 3036 3036 3036 3036 3037 3036 3035 3035 3034 3034 3033 3032 3031 3030 3029 3028 3027 3026 3025 3025 3024 3024 3023 3022 3021 3020 3019 3018 3017 3017 3016 3015 3015 3014 3013 3012 3011 3011 3010 3009 3008 3007 3006 3004 3003 3002 3000 2999 2998 2998 2997 2995 2994
3057 3056 3054 3053 3051 3050 3048 3047 3046 3045 3044 3044 3044 3043 3042 3042 3041 3040 3039 3039 3038 3038 3037 3038 3038 3038 3037 3036 3036 3036 3035 3034 3034 3034 3034 3034 3034 3034 3033 3032 3031 3030 3030 3029 3028 3027 3026 3025 3024 3023 3023 3022 3021 3021 3021 3020 3019 3018 3017 3016 3015 3015 3014 3013 3013 3012 3012 3011 3010 3010 3009 3008 3008 3007 3006 3005 3004 3003 3002 3001 3000 3000 2999 2998 2997
3054 3052 3050 3049 3047 3046 3044 3043 3042 3042 3041 3040 3040 3040 3039 3039 3038 3037 3037 3036 3036 3036 3036 3036 3036 3035 3035 3035 3034 3034 3034 3033 3032 3032 3032 3031 3030 3030 3030 3029 3028 3027 3026 3026 3025 3024 3023 3022 3021 3021 3020 3020 3019 3018 3018 3018 3017 3016 3015 3014 3013 3012 3012 3011 3010 3010 3010 3010 3009 3008 3008 3007 3007 3006 3006 3005 3005 3004 3003 3002 3002 3001 3001 3001 3000
3049 3048 3046 3045 3044 3042 3041 3040 3039 3039 3038 3037 3037 3037 3036 3036 3035 3035 3035 3034 3033 3034 3034 3034 3034 3034 3033 3033 3033 3032 3031 3031 3030 3029 3028 3027 3027 3026 3026 3025 3025 3024 3023 3022 3022 3021 3020 3019 3019 3018 3018 3017 3017 3016 3015 3015 3015 3015 3014 3013 3012 3011 3010 3009 3009 3008 3008 3008 3007 3007 3007 3006 3006 3005 3005 3005 3005 3004 3004 3003 3003 3003 3002 3002 3002
3045 3044 3042 3041 3040 3039 3038 3037 3036 3036 3035 3035 3035 3034 3034 3034 3033 3033 3032 3032 3031 3031 3031 3032 3033 3033 3032 3031 3030 3029 3028 3028 3027 3026 3025 3024 3024 3023 3023 3022 3021 3021 3020 3019 3019 3018 3018 3017 3017 3016 3016 3015 3014 3014 3013 3012 3012 3012 3012 3012 3011 3010 3009 3008 3007 3006 3006 3006 3006 3005 3005 3005 3004 3004 3004 3004 3004 3004 3004 3004 3004 3003 3003 3003 3003
3041 3040 3039 3037 3036 3036 3035 3034 3034 3033 3033 3032 3032 3032 3031 3031 3031 3030 3030 3030 3029 3028 3028 3028 3028 3029 3029 3028 3027 3026 3026 3025 3024 3023 3023 3022 3021 3020 3020 3019 3019 3018 3018 3017 3017 3016 3016 3016 3015 3014 3014 3013 3012 3012 3011 3011 3011 3010 3010 3010 3009 3009 3008 3007 3006 3005 3005 3004 3004 3004 3004 3003 3003 3003 3002 3002 3002 3003 3003 3003 3003 3003 3003 3003 3003
3037 3036 3035 3034 3033 3033 3032 3031 3031 3031 3030 3030 3029 3029 3029 3029 3028 3028 3028 3028 3028 3027 3025 3024 3024 3024 3025 3025 3024 3024 3023 3022 3021 3021 3020 3019 3018 3018 3017 3016 3016 3016 3015 3015 3015 3015 3014 3014 3014 3013 3013 3012 3011 3011 3010 3010 3010 3009 3009 3009 3008 3008 3007 3006 3005 3005 3004 3003 3003 3002 3002 3002 3002 3001 3001 3001 3001 3001 3001 3002 3002 3002 3002 3002 3002
3033 3033 3032 3031 3031 3030 3029 3028 3028 3028 3027 3027 3027 3027 3026 3026 3026 3026 3025 3025 3025 3024 3023 3022 3022 3021 3021 3021 3021 3020 3020 3019 3018 3018 3017 3016 3016 3015 3015 3014 3014 3013 3013 3013 3013 3013 3013 3013 3013 3012 3012 3011 3011 3010 3010 3010 3009 3009 3008 3008 3008 3007 3007 3006 3005 3004 3004 3003 3002 3001 3001 3000 3000 3000 3000 3000 2999 2999 3000 3000 3000 3001 3001 3001 3002
3030 3030 3029 3028 3028 3027 3027 3026 3025 3025 3025 3024 3024 3024 3023 3023 3023 3022 3022 3022 3022 3021 3020 3020 3019 3018 3018 3018 3018 3017 3017 3016 3015 3015 3014 3014 3013 3013 3012 3012 3012 3012 3012 3011 3011 3011 3011 3011 3012 3012 3011 3011 3011 3010 3010 3010 3009 3009 3008 3007 3007 3006 3006 3005 3005 3004 3003 3003 3002 3002 3001 3000 2999 2999 2999 2999 2999 2998 2998 2998 2999 2999 2999 3000 3000
3027 3027 3027 3026 3025 3024 3024 3023 3023 3022 3022 3021 3021 3021 3020 3020 3019 3018 3018 3018 3018 3017 3017 3016 3016 3015 3015 3015 3014 3014 3013 3013 3012 3012 3012 3012 3011 3011 3011 3011 3011 3011 3010 3010 3010 3010 3010 3010 3010 3011 3011 3011 3011 3010 3010 3009 3009 3008 3008 3007 3006 3006 3005 3005 3004 3004 3003 3002 3002 3001 3001 3000 2999 2999 2998 2998 2998 2998 2998 2998 2997 2997 2997 2998 2998
3024 3024 3024 3024 3023 3022 3021 3021 3020 3020 3019 3018 3017 3017 3016 3016 3015 3015 3014 3014 3014 3013 3013 3013 3012 3012 3012 3012 3011 3011 3011 3010 3010 3010 3010 3010 3010 3010 3010 3010 3010 3010 3009 3009 3009 3009 3010 3010 3010 3010 3010 3010 3010 3010 3010 3009 3008 3008 3007 3006 3006 3005 3005 3004 3004 3003 3002 3002 3001 3000 3000 3000 2999 2999 2998 2998 2997 2997 2997 2997 2997 2996 2996 2996 2996
3021 3021 3020 3020 3019 3018 3018 3017 3017 3016 3016 3015 3014 3013 3012 3012 3011 3011 3010 3010 3010 3010 3010 3010 3009 3009 3009 3009 3009 3008 3008 3009 3008 3009 3009 3009 3009 3009 3009 3009 3009 3009 3009 3009 3009 3009 3009 3009 3009 3009 3009 3009 3009 3009 3009 3008 3008 3007 3007 3006 3005 3004 3004 3003 3003 3002 3002 3001 3001 3000 2999 2999 2999 2998 2998 2997 2997 2997 2996 2996 2996 2996 2996 2995 2995
3018 3018 3017 3017 3017 3016 3015 3014 3014 3013 3013 3012 3012 3012 3011 3010 3008 3007 3007 3006 3006 3006 3006 3006 3006 3006 3006 3006 3006 3007 3007 3007 3007 3007 3007 3008 3008 3008 3008 3008 3008 3008 3008 3008 3008 3008 3008 3008 3007 3007 3007 3007 3007 3007 3007 3007 3006 3006 3005 3005 3004 3003 3003 3002 3001 3001 3001 3000 3000 2999 2999 2998 2997 2997 2997 2997 2996 2996 2995 2995 2995 2995 2995 2995 2995